CW4745 Weather Reports


Display with metric or nautical units.
time (UTC)temp
F
wind
direction
speed
MPH
gust
MPH
rain 1hr
in
rain 24hr
in
rain mn
in
humidity
%
barometer
mb
20180622085027 58 322 9.0 21.0 0.00 0.02 0.01 69 1024.9
20180622084025 58 314 9.0 22.0 0.00 0.02 0.01 71 1025.0
20180622083025 57 332 12.0 22.0 0.00 0.02 0.01 72 1024.7
20180622082025 57 355 9.0 23.0 0.00 0.02 0.01 72 1024.9
20180622081026 56 311 8.0 22.0 0.00 0.02 0.01 74 1024.6
20180622080034 55 287 13.0 21.0 0.00 0.02 0.01 76 1024.6
20180622075026 55 302 13.0 23.0 0.00 0.02 0.01 76 1024.6
20180622074026 54 295 10.0 19.0 0.01 0.02 0.01 79 1024.4
20180622073025 55 300 9.0 27.0 0.01 0.02 0.01 78 1024.4
20180622072026 54 309 9.0 27.0 0.01 0.02 0.01 79 1024.2
20180622071025 54 297 8.0 20.0 0.01 0.02 0.01 79 1024.1
20180622070034 53 316 11.0 21.0 0.01 0.02 0.01 80 1024.0
20180622065024 53 295 11.0 21.0 0.01 0.02 0.01 80 1024.0
20180622064024 54 314 9.0 19.0 0.00 0.02 0.00 77 1023.8
20180622063024 54 355 8.0 19.0 0.00 0.02 0.00 79 1023.9
20180622062023 53 318 9.0 26.0 0.00 0.02 0.00 80 1023.8
20180622061023 53 355 14.0 26.0 0.00 0.02 0.00 77 1023.7
20180622060023 53 352 9.0 19.0 0.00 0.02 0.00 79 1023.5
20180622055023 53 335 9.0 27.0 0.00 0.02 0.00 79 1023.5
20180622054023 55 305 11.0 24.0 0.00 0.02 0.00 74 1023.7
20180622053022 54 290 13.0 24.0 0.00 0.02 0.00 72 1023.4
20180622052022 54 309 11.0 23.0 0.00 0.02 0.00 73 1023.3
20180622051027 54 276 11.0 24.0 0.00 0.02 0.00 71 1023.3
20180622050021 55 269 13.0 29.0 0.00 0.02 0.00 70 1023.0
20180622045021 55 328 14.0 26.0 0.00 0.02 0.00 68 1023.1
20180622044021 55 322 12.0 23.0 0.00 0.02 0.00 67 1023.1
20180622043021 55 308 13.0 30.0 0.00 0.02 0.00 66 1023.1
20180622042021 55 308 12.0 27.0 0.00 0.02 0.00 65 1023.3
20180622041020 55 257 13.0 32.0 0.00 0.02 0.00 63 1023.1
20180622040020 55 318 13.0 26.0 0.00 0.02 0.00 61 1023.2
20180622035019 55 312 12.0 36.0 0.00 0.02 0.00 60 1023.1
20180622034019 55 319 13.0 32.0 0.00 0.02 0.00 59 1022.9
20180622033020 55 346 11.0 30.0 0.00 0.02 0.00 62 1023.0
20180622032019 55 343 12.0 30.0 0.00 0.02 0.00 61 1022.7
20180622031019 55 355 13.0 28.0 0.00 0.02 0.00 65 1022.8
20180622030018 55 285 12.0 27.0 0.00 0.02 0.00 65 1022.7
20180622025018 55 312 8.0 24.0 0.00 0.02 0.00 68 1022.6
20180622024017 55 319 11.0 28.0 0.00 0.02 0.00 69 1022.8
20180622023021 55 300 15.0 32.0 0.00 0.02 0.00 68 1022.7
20180622022018 55 302 10.0 24.0 0.00 0.02 0.00 68 1022.7
20180622021017 55 298 8.0 29.0 0.00 0.02 0.00 71 1022.7
20180622020017 55 297 12.0 29.0 0.00 0.02 0.00 70 1022.7
20180622015017 55 276 14.0 26.0 0.00 0.02 0.00 71 1022.6
20180622014017 55 353 9.0 26.0 0.00 0.02 0.00 70 1022.6
20180622013017 55 301 12.0 24.0 0.00 0.02 0.00 70 1022.7
20180622012015 55 312 12.0 22.0 0.00 0.02 0.00 71 1022.7
20180622011015 55 291 10.0 26.0 0.00 0.02 0.00 71 1022.7
20180622010015 55 315 12.0 26.0 0.00 0.02 0.00 70 1022.8
20180622005016 56 333 9.0 29.0 0.00 0.02 0.00 69 1023.0
20180622004014 56 355 13.0 26.0 0.00 0.02 0.00 68 1023.0
20180622003017 56 284 15.0 30.0 0.00 0.02 0.00 67 1023.1
20180622002012 56 355 15.0 30.0 0.00 0.02 0.00 66 1022.9
20180622001013 56 355 11.0 30.0 0.00 0.02 0.00 67 1023.0
20180622000029 55 270 13.0 24.0 0.00 0.02 0.00 69 1023.1
20180621235013 55 298 10.0 26.0 0.00 0.02 0.00 69 1023.2
20180621234016 55 301 11.0 26.0 0.00 0.02 0.00 69 1023.3
20180621233017 55 290 14.0 30.0 0.00 0.02 0.00 70 1023.3
20180621232013 55 359 13.0 30.0 0.00 0.02 0.00 70 1023.4
20180621231013 55 285 15.0 30.0 0.00 0.02 0.00 70 1023.4
20180621230014 55 300 14.0 24.0 0.00 0.02 0.00 70 1023.4
20180621225015 55 332 14.0 27.0 0.00 0.02 0.00 69 1023.5
20180621224013 55 318 10.0 29.0 0.00 0.02 0.00 69 1023.7
20180621223017 55 314 13.0 28.0 0.00 0.02 0.00 70 1023.6
20180621222013 55 307 11.0 23.0 0.00 0.02 0.00 69 1023.6
20180621221012 55 312 12.0 24.0 0.00 0.02 0.00 68 1023.7
20180621220014 55 288 9.0 23.0 0.00 0.02 0.00 67 1023.6
20180621215013 55 343 12.0 27.0 0.00 0.02 0.02 66 1023.6
20180621214015 55 349 10.0 21.0 0.00 0.02 0.02 67 1023.6
20180621213021 55 308 11.0 24.0 0.00 0.02 0.02 66 1023.7
20180621212015 55 329 13.0 27.0 0.00 0.02 0.02 66 1023.8
20180621211015 55 284 12.0 24.0 0.00 0.02 0.02 66 1023.6
20180621210014 55 305 13.0 24.0 0.00 0.02 0.02 66 1023.7
20180621205014 55 285 13.0 27.0 0.00 0.02 0.02 65 1023.7
20180621204013 55 283 11.0 22.0 0.00 0.02 0.02 68 1023.8
20180621203017 54 343 10.0 22.0 0.00 0.02 0.02 72 1023.7
20180621202013 54 328 10.0 22.0 0.00 0.02 0.02 72 1023.7
20180621201015 55 283 8.0 27.0 0.00 0.02 0.02 70 1023.8
20180621200017 55 6 11.0 24.0 0.00 0.02 0.02 68 1023.8
20180621195012 55 340 9.0 22.0 0.00 0.02 0.02 68 1023.6
20180621194014 55 316 12.0 26.0 0.00 0.02 0.02 68 1023.7
20180621193016 55 294 11.0 24.0 0.00 0.02 0.02 69 1023.8
20180621192014 55 355 11.0 21.0 0.00 0.02 0.02 69 1023.7
20180621191011 55 297 12.0 21.0 0.00 0.02 0.02 69 1023.8
20180621190010 56 308 9.0 28.0 0.00 0.02 0.02 69 1023.6
20180621185012 56 269 12.0 20.0 0.00 0.02 0.02 68 1023.7
20180621184010 56 280 10.0 18.0 0.00 0.02 0.02 67 1023.8
20180621183018 56 294 11.0 26.0 0.00 0.02 0.02 66 1023.8
20180621182010 56 298 9.0 22.0 0.00 0.02 0.02 65 1023.8
20180621181009 57 281 7.0 24.0 0.00 0.02 0.02 64 1023.9
20180621180006 57 283 8.0 22.0 0.00 0.02 0.02 64 1023.9
20180621175004 57 235 10.0 28.0 0.00 0.02 0.02 63 1023.8
20180621174008 57 285 13.0 23.0 0.00 0.02 0.02 64 1023.8
20180621173006 56 309 11.0 22.0 0.00 0.02 0.02 66 1023.8
20180621172007 57 285 13.0 26.0 0.00 0.02 0.02 67 1023.8
20180621171003 57 254 11.0 22.0 0.00 0.02 0.02 65 1023.7
20180621170005 58 350 10.0 24.0 0.00 0.02 0.02 66 1023.6
20180621165009 57 324 8.0 21.0 0.00 0.02 0.02 67 1023.6
20180621164005 57 316 9.0 22.0 0.00 0.02 0.02 71 1023.4
20180621163003 57 285 7.0 22.0 0.00 0.02 0.02 70 1023.4
20180621162006 58 259 12.0 19.0 0.01 0.02 0.02 67 1023.4
20180621161001 57 333 9.0 26.0 0.01 0.02 0.02 67 1023.3
20180621160001 57 288 11.0 24.0 0.01 0.02 0.02 71 1023.2
20180621155001 57 288 11.0 21.0 0.01 0.02 0.02 71 1023.0
20180621154001 57 305 13.0 24.0 0.01 0.02 0.02 74 1023.1
20180621153001 56 297 7.0 21.0 0.01 0.02 0.02 74 1022.9
20180621152001 59 11 10.0 24.0 0.00 0.01 0.01 69 1022.9
20180621151000 59 336 10.0 24.0 0.00 0.01 0.01 64 1022.7
20180621150001 59 355 12.0 23.0 0.00 0.01 0.01 64 1022.8
20180621145000 60 322 11.0 26.0 0.00 0.01 0.01 63 1022.7
20180621143959 60 266 11.0 26.0 0.00 0.01 0.01 63 1022.6
20180621142959 60 319 14.0 29.0 0.00 0.01 0.01 64 1022.4
20180621141959 60 346 9.0 27.0 0.00 0.01 0.01 65 1022.3
20180621140959 60 314 14.0 26.0 0.00 0.01 0.01 63 1022.2
20180621135959 59 312 13.0 28.0 0.00 0.01 0.01 64 1022.2
20180621134958 60 315 10.0 26.0 0.00 0.01 0.01 65 1021.9
20180621133958 59 288 13.0 26.0 0.00 0.01 0.01 63 1022.0
20180621132958 60 285 12.0 26.0 0.01 0.01 0.01 65 1021.7
20180621131958 59 349 11.0 26.0 0.01 0.01 0.01 66 1021.5
20180621130957 58 338 13.0 27.0 0.01 0.01 0.01 70 1021.3
20180621125957 58 329 12.0 22.0 0.01 0.01 0.01 73 1021.3
20180621124957 57 290 10.0 20.0 0.01 0.01 0.01 74 1021.1
20180621123956 59 343 9.0 26.0 0.01 0.01 0.01 72 1021.0
20180621122956 59 291 12.0 26.0 0.00 0.00 0.00 67 1020.7
20180621121957 58 298 11.0 28.0 0.00 0.00 0.00 67 1020.6
20180621120956 59 308 11.0 24.0 0.00 0.00 0.00 64 1020.5
20180621115956 60 311 12.0 29.0 0.00 0.00 0.00 63 1020.4
20180621114955 60 295 13.0 22.0 0.00 0.00 0.00 65 1020.3
20180621113956 60 301 12.0 23.0 0.00 0.00 0.00 65 1020.1
20180621112955 59 322 12.0 26.0 0.00 0.00 0.00 63 1020.1
20180621111955 59 280 15.0 28.0 0.00 0.00 0.00 64 1019.9
20180621110953 59 338 13.0 24.0 0.00 0.00 0.00 64 1019.8
20180621105954 59 302 10.0 27.0 0.00 0.00 0.00 64 1019.7
20180621104954 59 298 16.0 28.0 0.00 0.00 0.00 61 1019.6
20180621103957 59 270 12.0 33.0 0.00 0.00 0.00 63 1019.4
20180621102954 59 277 15.0 26.0 0.00 0.00 0.00 62 1019.3
20180621101953 60 301 12.0 27.0 0.00 0.00 0.00 61 1019.1
20180621100953 58 332 14.0 24.0 0.00 0.00 0.00 63 1018.9
20180621095953 59 340 14.0 24.0 0.00 0.00 0.00 62 1019.2
20180621094952 59 280 15.0 30.0 0.00 0.00 0.00 60 1018.8
20180621093952 59 312 12.0 32.0 0.00 0.00 0.00 61 1018.6
20180621092952 59 274 14.0 28.0 0.00 0.00 0.00 61 1018.7
20180621091952 59 329 14.0 30.0 0.00 0.00 0.00 60 1018.5
20180621091003 58 287 11.0 33.0 0.00 0.00 0.00 62 1018.4
20180621085952 57 267 14.0 29.0 0.00 0.00 0.00 63 1018.1